sat.trackr.live / text

‹ back to catalog

STARLINK-1556

NORAD 46033 · 2020-055G

PAYLOAD ACTIVE UNKNOWN

§ Identity

Operator
Country
US
Launch date
2020-08-07
Launch site
AFETR
Launch vehicle
Mass (kg)
RCS (m²)

Purposes: comms

External: N2YO · Heavens-Above · Gunter

§ Orbital elements

Epoch: 2026-09-19T19:56:51.956160Z

Period
94.01 min
Inclination
53.1606°
Eccentricity
0.0000898
Mean motion
15.31719124 rev/d
Perigee alt
470.1 km
Apogee alt
471.3 km
Semi-major
6,848.8 km
B*
-1.1453e-4
RAAN
303.9216°
Arg perigee
66.7637°
Mean anomaly
293.3459°
Rev number
33,860

§ Raw data

STARLINK-15561 46033U 20055G   26262.83115690 -.00003919  00000+0 -11453-3 0  99992 46033  53.1606 303.9216 0000898  66.7637 293.3459 15.31719124338602

JSON: /api/v1/satellites/46033 · /tle

For live sub-satellite position, see the globe view (requires WebGL).

§ Visibility from observer

Set your observer location to see the next 7 days of passes ≥ 10°. The values pass through the URL so the page stays shareable.

No JS? Fill the form by hand. The geolocation button needs JavaScript.